Home > Weather > Ipswich > Past weeks

Flag for United Kingdom Weather for the Past 2 Weeks in Ipswich, England, United Kingdom

Now
39 °F

Light rain. Partly cloudy.


Feels Like: 31 °F
Forecast: 36 / 45 °F
Wind: 15 mph from West

Location: Wattisham

Current Time: Feb 10, 2016 at 3:58:37 AM

Latest Report: Feb 10, 2016 at 2:50 AM


Visibility: N/A

Pressure: 29.18 "Hg

Humidity: 87%

Dew point: 36 °F

Location of IpswichLocation

Historic Weather in Ipswich — Graph

°F

Ipswich Temperature Yesterday

Maximum temperature yesterday: 43 °F (at 1:50 PM)
Minimum temperature yesterday: 34 °F (at 5:50 PM)
Average temperature yesterday: 39 °F

High & Low Weather Summary for the Past Weeks

 TemperatureHumidityPressure
High55 °F (Jan 27, 10:50 AM)100% (Jan 31, 1:50 PM)30.30 "Hg (Jan 31, 1:50 PM)
Low30 °F (Feb 3, 10:50 PM)50% (Feb 2, 1:50 PM)28.94 "Hg (Feb 8, 12:50 PM)
Average46 °F82%29.74 "Hg
* Reported Jan 26 1:50 AM — Feb 10 1:50 AM, Ipswich, Weather by CustomWeather, © 2016

Note: Actual official high and low records may vary slightly from our data, if they occured in-between our weather recording intervals... More about our weather records

Advertising

Ipswich Weather History for the Previous 24 Hours

 ConditionsComfort  
Time TempWeatherWind HumidityBarometerVisibility
1:50 AM
Wed, Feb 10
37 °FLight rain. Partly cloudy.14 mph93%29.18 "HgN/A
12:50 AM37 °FPassing clouds.15 mph87%29.18 "HgN/A
11:50 PM
Tue, Feb 9
39 °FOvercast.15 mph81%29.15 "HgN/A
10:50 PM37 °FMostly cloudy.12 mph87%29.15 "HgN/A
9:50 PM37 °FPassing clouds.12 mph87%29.12 "HgN/A
8:50 PM36 °FPassing clouds.15 mph87%29.12 "HgN/A
7:50 PM37 °FPassing clouds.14 mph81%29.09 "HgN/A
6:50 PM37 °FClear.10 mph75%29.09 "Hg10 mi
5:50 PM34 °FPassing clouds.8 mph87%29.09 "HgN/A
4:50 PM37 °FPassing clouds.12 mph81%29.06 "HgN/A
3:50 PM43 °FPassing clouds.17 mph66%29.03 "HgN/A
2:50 PM43 °FScattered clouds.17 mph66%29.03 "HgN/A
1:50 PM43 °FPartly sunny.14 mph71%29.03 "HgN/A
12:50 PM41 °FPartly sunny.12 mph76%29.03 "HgN/A
11:50 AM41 °FPartly sunny.9 mph81%29.03 "HgN/A
10:50 AM41 °FPartly sunny.5 mph81%29.06 "HgN/A
9:50 AM41 °FBroken clouds.5 mph81%29.09 "HgN/A
8:50 AM39 °FBroken clouds.7 mph81%29.09 "HgN/A
7:50 AM37 °FSunny.5 mph87%29.12 "Hg10 mi
6:50 AM37 °FClear.9 mph81%29.18 "Hg10 mi
5:50 AM37 °FClear.12 mph81%29.21 "Hg10 mi
4:50 AM37 °FClear.13 mph81%29.24 "Hg10 mi
3:50 AM39 °FClear.17 mph81%29.24 "Hg10 mi
Weather by CustomWeather, © 2016

See weather overviewHow to use our weather pages